Location: Boiro
(42.6475°N, 8.8834°W)
Time: 14:59:44
(UTC+01:00)

Vanguard 2 Rocket - Visible Passes

Search period start: 09 December 2021 00:00
Search period end: 19 December 2021 00:00
Orbit: 555 x 3324 km, 32.9° (Epoch: 09 December)

Date Brightness Start Highest point End Pass type
(mag) Time Alt. Az. Time Alt. Az. Time Alt. Az.
09 Dec 8.2 20:19:42 10° WSW 20:24:58 38° S 20:28:16 27° SE visible
09 Dec 9.5 22:31:49 10° WSW 22:34:04 19° WSW 22:34:04 19° WSW visible
10 Dec 8.0 19:20:56 10° WSW 19:25:24 34° S 19:31:56 11° ESE visible
10 Dec 8.7 21:32:36 10° WSW 21:37:44 31° SSW 21:37:44 31° SSW visible
11 Dec 8.1 18:22:16 10° SW 18:26:03 27° SSE 18:31:14 10° ESE visible
11 Dec 8.4 20:33:34 10° WSW 20:38:38 32° S 20:41:27 26° SSE visible
11 Dec 9.8 22:46:24 10° WSW 22:47:15 13° WSW 22:47:15 13° WSW visible
12 Dec 8.1 19:34:40 10° WSW 19:39:01 31° S 19:45:14 11° ESE visible
12 Dec 9.1 21:46:52 10° WSW 21:51:03 23° SSW 21:51:03 23° SSW visible
13 Dec 8.0 18:35:51 10° SW 18:39:37 28° S 18:44:45 10° ESE visible
13 Dec 8.7 20:47:39 10° WSW 20:52:19 25° S 20:54:54 21° SSE visible
14 Dec 8.4 19:48:36 10° WSW 19:52:42 26° S 19:58:32 10° SE visible
14 Dec 9.5 22:01:52 10° SW 22:04:41 15° SSW 22:04:41 15° SSW visible
15 Dec 8.2 18:49:38 10° WSW 18:53:14 25° S 18:58:03 10° SE visible
15 Dec 9.1 21:02:11 10° SW 21:06:01 18° SSW 21:08:44 15° S visible
16 Dec 8.8 20:02:50 10° WSW 20:06:22 19° S 20:11:03 10° SSE visible
17 Dec 8.5 19:03:39 10° WSW 19:06:53 20° S 19:11:00 10° SE visible
17 Dec 9.6 21:18:45 10° SSW 21:19:45 10° SSW 21:20:50 10° S visible
18 Dec 9.3 20:17:59 10° SW 20:20:04 12° SSW 20:22:27 10° S visible
